Flag for Germany Weather past 2 weeks in Schorndorf, Baden-Württemberg, Germany

Now
36 °F

Overcast.


Feels Like: 33 °F
Forecast: 33 / 37 °F
Wind: 3 mph from West

Location: Stuttgart-Echterdingen

Current Time: Jan 25, 2015 at 3:35:41 PM

Latest Report: Jan 25, 2015 at 3:00 PM


Visibility: 13 mi

Pressure: 30.43 "Hg

Humidity: 79%

Dew point: 30 °F

Location of SchorndorfLocation

Historic Weather in Schorndorf — Graph

°F

Schorndorf temperature yesterday

Maximum temperature yesterday: 35 °F (at 3:00 PM)
Minimum temperature yesterday: 32 °F (at 9:00 PM)
Average temperature yesterday: 33 °F

Past Weeks' High & Low Weather Summary

 TemperatureHumidityPressure
High58 °F (Jan 13, 3:00 PM)99% (Jan 18, 7:00 AM)30.47 "Hg (Jan 18, 7:00 AM)
Low27 °F (Jan 19, 6:00 AM)30% (Jan 13, 3:00 PM)29.72 "Hg (Jan 16, 5:00 PM)
Average37 °F82%30.04 "Hg
* Reported Jan 10 2:00 PM — Jan 25 2:00 PM, Schorndorf, Weather by CustomWeather, © 2014

Note: Actual official high and low records may vary slightly from our data, if they occured in-between our weather recording intervals... More about our weather records

Advertising

Schorndorf weather history for previous 24 hours

 ConditionsComfort  
Time TempWeatherWind HumidityBarometerVisibility
2:00 PM
Jan 25
35 °FOvercast.2 mph82%30.44 "Hg11 mi
1:00 PM35 °FOvercast.3 mph85%30.45 "Hg7 mi
12:00 PM34 °FOvercast.3 mph86%30.47 "Hg7 mi
11:00 AM34 °FOvercast.1 mph87%30.47 "Hg6 mi
10:00 AM33 °FOvercast.2 mph87%30.45 "Hg6 mi
9:00 AM32 °FOvercast.3 mph88%30.45 "Hg6 mi
8:00 AM32 °FOvercast.5 mph88%30.43 "Hg6 mi
7:00 AM33 °FOvercast.5 mph89%30.40 "Hg7 mi
6:00 AM32 °FOvercast.3 mph90%30.39 "Hg7 mi
3:00 AM33 °FLow clouds.7 mph91%30.33 "Hg6 mi
2:00 AM33 °FLight snow. Low clouds.8 mph94%30.32 "Hg3 mi
1:00 AM32 °FLight snow. Low clouds.2 mph95%30.30 "Hg2 mi
12:00 AM31 °FLight snow. Low clouds.2 mph94%30.30 "Hg2 mi
10:00 PM
Jan 24
32 °FLight snow. Overcast.2 mph91%30.27 "Hg6 mi
9:00 PM32 °FLight snow. Low clouds.5 mph89%30.26 "Hg3 mi
8:00 PM32 °FLight snow. Overcast.3 mph91%30.24 "Hg5 mi
7:00 PM32 °FSnow. Low clouds.5 mph92%30.22 "Hg2 mi
6:00 PM34 °FSnow flurries. Overcast.2 mph82%30.18 "Hg16 mi
5:00 PM34 °FOvercast.2 mph80%30.16 "Hg19 mi
4:00 PM35 °FOvercast.5 mph80%30.15 "Hg19 mi
3:00 PM35 °FOvercast.3 mph78%30.14 "Hg16 mi
Weather by CustomWeather, © 2014

See weather overviewHow to use our weather pages